CO3D 4

Last updated on Sat Oct 25 2025 00:02:33 GMT+0000 (Coordinated Universal Time)

1 64901U 25156C 25297.73968366 .00010121 00000+0 47008-3 0 9998 2 64901 97.4351 14.8101 0001175 29.7431 330.3871 15.20197415 13763
UTC large
Height (km)
Speed (km/s)
/
Latitude / Longitude
Inclination (degrees)
Orbital Period (minutes)
Azimuth
Elevation
Range (km)
Doppler Factor

Next 0 passes for location: London (51.5072 / 0.1276)

Sorry there are no passes over London.